Tracking 29892 objects as of 21-Nov-2024
HD Live streaming from Space Station
objects crossing your sky now

HAWK-6A

Track HAWK-6A now!
10-day predictions


NORAD ID: 55327
Int'l Code: 2023-011D
Perigee: 527.8 km
Apogee: 531.1 km
Inclination: 40.5 °
Period: 95.1 minutes
Semi major axis: 6900 km
RCS: Unknown
Launch date: January 24, 2023
Source: United States (US)
Launch site: WALLOPS ISLAND (WLPIS)
Your satellite tracking list
Your tracking list is empty




NASA's NSSDC Master Catalog

Two Line Element Set (TLE):
1 55327U 23011D   24325.46957301  .00009249  00000-0  50084-3 0  9994
2 55327  40.5004  77.4239 0002346 157.9772 202.1136 15.14558059100584
Source of the keplerian elements: AFSPC